GW0944 Weather Reports


time (UTC)temp
C
wind
direction
speed
KPH
gust
KPH
rain 1hr
cm
rain 24hr
cm
rain mn
cm
humidity
%
barometer
mb
20260906225120 36 129 1.6 1.6 0.00 0.00 0.00 44 1007.8
20260906224614 36 139 0.0 0.0 0.00 0.00 0.00 44 1007.8
20260906224111 37 103 6.4 12.9 0.00 0.00 0.00 44 1007.9
20260906223607 37 142 3.2 3.2 0.00 0.00 0.00 43 1008.0
20260906223106 37 99 9.7 14.5 0.00 0.00 0.00 42 1007.9
20260906222605 37 123 3.2 4.8 0.00 0.00 0.00 43 1008.1
20260906222103 36 143 0.0 1.6 0.00 0.00 0.00 43 1007.8
20260906221601 37 144 3.2 8.0 0.00 0.00 0.00 43 1008.2
20260906221057 37 158 0.0 1.6 0.00 0.00 0.00 43 1008.3
20260906220552 37 272 0.0 0.0 0.00 0.00 0.00 43 1007.9
20260906220048 37 96 1.6 4.8 0.00 0.00 0.00 43 1008.2
20260906215547 37 179 4.8 4.8 0.00 0.00 0.00 43 1008.1
20260906215045 38 157 3.2 4.8 0.00 0.00 0.00 42 1008.1
20260906214544 37 263 0.0 0.0 0.00 0.00 0.00 45 1008.1
20260906214039 37 166 4.8 9.7 0.00 0.00 0.00 42 1008.0
20260906213538 38 97 3.2 3.2 0.00 0.00 0.00 42 1008.0
20260906213033 37 282 0.0 0.0 0.00 0.00 0.00 44 1008.4
20260906212526 37 181 0.0 0.0 0.00 0.00 0.00 44 1008.3
20260906212021 36 78 0.0 0.0 0.00 0.00 0.00 46 1008.3
20260906211515 37 129 6.4 9.7 0.00 0.00 0.00 44 1008.5
20260906211011 37 142 4.8 4.8 0.00 0.00 0.00 44 1008.4
20260906210501 37 114 3.2 3.2 0.00 0.00 0.00 44 1008.4
20260906205959 37 106 0.0 1.6 0.00 0.00 0.00 44 1008.7
20260906205450 36 198 1.6 1.6 0.00 0.00 0.00 46 1008.6
20260906204947 36 156 3.2 8.0 0.00 0.00 0.00 47 1008.7
20260906204446 36 123 9.7 11.3 0.00 0.00 0.00 45 1008.8
20260906203944 36 169 1.6 4.8 0.00 0.00 0.00 46 1008.9
20260906203440 37 198 4.8 9.7 0.00 0.00 0.00 46 1008.9
20260906202938 37 47 0.0 0.0 0.00 0.00 0.00 47 1008.9
20260906202437 36 200 3.2 8.0 0.00 0.00 0.00 46 1009.1
20260906201932 36 197 1.6 3.2 0.00 0.00 0.00 47 1009.1
20260906201426 36 104 6.4 11.3 0.00 0.00 0.00 46 1009.1
20260906200921 36 131 3.2 8.0 0.00 0.00 0.00 48 1009.2
20260906200417 37 160 6.4 9.7 0.00 0.00 0.00 46 1009.3
20260906195912 37 135 4.8 4.8 0.00 0.00 0.00 46 1009.4
20260906195408 37 277 0.0 0.0 0.00 0.00 0.00 47 1009.2
20260906194904 37 189 1.6 3.2 0.00 0.00 0.00 48 1009.3
20260906194359 36 207 0.0 3.2 0.00 0.00 0.00 49 1009.4
20260906193854 36 5 3.2 3.2 0.00 0.00 0.00 47 1009.6
20260906193349 36 151 3.2 8.0 0.00 0.00 0.00 48 1009.6
20260906192844 36 159 6.4 8.0 0.00 0.00 0.00 48 1009.5
20260906192339 37 85 1.6 4.8 0.00 0.00 0.00 48 1009.7
20260906191839 36 285 0.0 0.0 0.00 0.00 0.00 48 1009.9
20260906191338 36 164 0.0 0.0 0.00 0.00 0.00 50 1009.7
20260906190833 35 228 3.2 4.8 0.00 0.00 0.00 50 1009.9
20260906190332 36 99 3.2 3.2 0.00 0.00 0.00 48 1010.0
20260906185827 36 184 1.6 1.6 0.00 0.00 0.00 51 1009.8
20260906185326 36 74 4.8 8.0 0.00 0.00 0.00 49 1009.8
20260906184821 36 134 3.2 4.8 0.00 0.00 0.00 49 1010.0
20260906184316 35 103 3.2 8.0 0.00 0.00 0.00 51 1010.0
20260906183811 35 137 8.0 9.7 0.00 0.00 0.00 51 1010.3
20260906183307 35 103 6.4 8.0 0.00 0.00 0.00 50 1010.3
20260906182807 35 145 4.8 9.7 0.00 0.00 0.00 50 1010.4
20260906182306 35 181 0.0 3.2 0.00 0.00 0.00 52 1010.5
20260906181758 35 201 1.6 4.8 0.00 0.00 0.00 53 1010.6
20260906181254 35 110 3.2 4.8 0.00 0.00 0.00 51 1010.6
20260906180754 35 151 0.0 1.6 0.00 0.00 0.00 51 1010.4
20260906180249 36 340 1.6 1.6 0.00 0.00 0.00 52 1010.5
20260906175747 35 198 0.0 0.0 0.00 0.00 0.00 51 1010.7
20260906175243 35 187 0.0 0.0 0.00 0.00 0.00 55 1010.7
20260906174741 35 102 1.6 4.8 0.00 0.00 0.00 52 1011.0
20260906174240 35 145 6.4 8.0 0.00 0.00 0.00 51 1011.0
20260906173736 35 104 4.8 8.0 0.00 0.00 0.00 52 1011.1
20260906173232 35 113 0.0 1.6 0.00 0.00 0.00 52 1011.1
20260906172730 35 348 0.0 0.0 0.00 0.00 0.00 54 1011.5
20260906172226 35 134 3.2 4.8 0.00 0.00 0.00 53 1011.5
20260906171726 34 113 1.6 3.2 0.00 0.00 0.00 54 1011.4
20260906171222 35 157 0.0 0.0 0.00 0.00 0.00 55 1011.4
20260906170718 35 134 3.2 4.8 0.00 0.00 0.00 55 1011.4
20260906170213 35 295 0.0 0.0 0.00 0.00 0.00 55 1011.7
20260906165709 35 34 4.8 9.7 0.00 0.00 0.00 54 1011.5
20260906165204 35 276 1.6 3.2 0.00 0.00 0.00 56 1011.6
20260906164703 35 204 1.6 1.6 0.00 0.00 0.00 57 1011.8
20260906164158 35 231 0.0 0.0 0.00 0.00 0.00 57 1011.9
20260906163654 35 193 0.0 0.0 0.00 0.00 0.00 58 1011.6
20260906163150 34 159 0.0 0.0 0.00 0.00 0.00 59 1011.7
20260906162647 34 126 3.2 9.7 0.00 0.00 0.00 58 1011.6
20260906162146 33 133 0.0 0.0 0.00 0.00 0.00 60 1011.5
20260906161641 33 119 1.6 1.6 0.00 0.00 0.00 61 1011.7
20260906161140 34 281 0.0 3.2 0.00 0.00 0.00 59 1011.6
20260906160639 33 209 0.0 1.6 0.00 0.00 0.00 62 1011.6
20260906160133 33 223 0.0 0.0 0.00 0.00 0.00 62 1011.6
20260906155630 33 146 1.6 1.6 0.00 0.00 0.00 61 1011.6
20260906155126 33 88 0.0 0.0 0.00 0.00 0.00 62 1011.9
20260906154621 33 140 6.4 9.7 0.00 0.00 0.00 62 1011.7
20260906154120 33 176 1.6 3.2 0.00 0.00 0.00 63 1011.8
20260906153620 33 113 0.0 3.2 0.00 0.00 0.00 65 1011.7
20260906153114 33 201 0.0 0.0 0.00 0.00 0.00 64 1011.6
20260906152609 32 42 0.0 0.0 0.00 0.00 0.00 67 1011.7
20260906152103 33 234 0.0 0.0 0.00 0.00 0.00 65 1011.4
20260906151558 32 154 0.0 0.0 0.00 0.00 0.00 68 1011.3
20260906151054 32 80 1.6 1.6 0.00 0.00 0.00 66 1011.4
20260906150549 32 157 0.0 1.6 0.00 0.00 0.00 68 1011.3
20260906150044 31 169 0.0 0.0 0.00 0.00 0.00 69 1011.2
20260906145543 31 77 3.2 3.2 0.00 0.00 0.00 69 1011.4
20260906145038 32 166 0.0 0.0 0.00 0.00 0.00 69 1011.4
20260906144532 31 194 0.0 0.0 0.00 0.00 0.00 71 1011.2
20260906144028 31 91 3.2 4.8 0.00 0.00 0.00 70 1011.2
20260906143523 30 140 0.0 0.0 0.00 0.00 0.00 71 1011.2
20260906143019 30 150 4.8 4.8 0.00 0.00 0.00 71 1011.2
20260906142513 31 96 3.2 3.2 0.00 0.00 0.00 71 1011.1
20260906142009 31 164 0.0 0.0 0.00 0.00 0.00 71 1011.3
20260906141508 30 62 0.0 0.0 0.00 0.00 0.00 72 1011.5
20260906141003 30 119 0.0 0.0 0.00 0.00 0.00 72 1011.3
20260906140457 30 204 0.0 0.0 0.00 0.00 0.00 73 1011.5
20260906135955 30 123 0.0 0.0 0.00 0.00 0.00 72 1011.5
20260906135454 30 80 0.0 0.0 0.00 0.00 0.00 72 1011.4
20260906134949 30 181 0.0 0.0 0.00 0.00 0.00 75 1011.6
20260906134445 30 146 0.0 0.0 0.00 0.00 0.00 75 1011.3
20260906133944 30 94 0.0 0.0 0.00 0.00 0.00 75 1011.4
20260906133440 29 163 0.0 0.0 0.00 0.00 0.00 76 1011.6
20260906132936 29 187 1.6 1.6 0.00 0.00 0.00 77 1011.5
20260906132431 29 134 0.0 0.0 0.00 0.00 0.00 77 1011.5
20260906131927 28 54 0.0 0.0 0.00 0.00 0.00 77 1011.4
20260906131422 28 147 0.0 0.0 0.00 0.00 0.00 77 1011.6
20260906130918 28 144 0.0 0.0 0.00 0.00 0.00 79 1011.4
20260906130417 28 140 0.0 0.0 0.00 0.00 0.00 79 1011.5
20260906125917 27 111 0.0 0.0 0.00 0.00 0.00 81 1011.3
20260906125414 27 170 0.0 0.0 0.00 0.00 0.00 82 1011.3
20260906124908 26 194 0.0 0.0 0.00 0.00 0.00 84 1011.3
20260906124404 26 200 0.0 0.0 0.00 0.00 0.00 84 1011.3
20260906123904 26 185 0.0 0.0 0.00 0.00 0.00 84 1011.1
20260906123358 26 197 0.0 0.0 0.00 0.00 0.00 84 1011.2
20260906122852 26 184 0.0 0.0 0.00 0.00 0.00 84 1011.2
20260906122347 26 186 0.0 0.0 0.00 0.00 0.00 84 1011.1
20260906121844 26 183 0.0 0.0 0.00 0.00 0.00 85 1010.8
20260906121339 26 189 0.0 0.0 0.00 0.00 0.00 85 1011.0
20260906120836 26 190 0.0 0.0 0.00 0.00 0.00 85 1010.6
20260906120332 26 188 0.0 0.0 0.00 0.00 0.00 85 1010.7
20260906115828 26 192 0.0 0.0 0.00 0.00 0.00 85 1010.7
20260906115322 26 191 0.0 0.0 0.00 0.00 0.00 85 1010.9
20260906114822 26 191 0.0 0.0 0.00 0.00 0.00 84 1010.9
20260906114317 26 200 0.0 0.0 0.00 0.00 0.00 84 1010.8
20260906113812 26 211 0.0 0.0 0.00 0.00 0.00 84 1010.8
20260906113311 26 221 0.0 0.0 0.00 0.00 0.00 84 1010.9
20260906112807 26 238 0.0 0.0 0.00 0.00 0.00 84 1010.5
20260906112306 26 251 0.0 0.0 0.00 0.00 0.00 84 1010.4
20260906111803 26 244 0.0 0.0 0.00 0.00 0.00 84 1010.4
20260906111302 26 224 0.0 0.0 0.00 0.00 0.00 83 1010.5
20260906110757 26 217 0.0 0.0 0.00 0.00 0.00 83 1010.3
20260906110253 26 211 0.0 0.0 0.00 0.00 0.00 84 1010.4
20260906105752 26 203 0.0 0.0 0.00 0.00 0.00 84 1010.5
20260906105248 26 208 0.0 0.0 0.00 0.00 0.00 85 1010.4
20260906104743 26 203 0.0 0.0 0.00 0.00 0.00 84 1010.3
20260906104242 26 203 0.0 0.0 0.00 0.00 0.00 84 1010.2
20260906103740 26 186 0.0 0.0 0.00 0.00 0.00 84 1010.4
20260906103234 26 193 0.0 0.0 0.00 0.00 0.00 84 1010.1
20260906102730 26 221 0.0 0.0 0.00 0.00 0.00 85 1010.3
20260906102229 26 221 0.0 0.0 0.00 0.00 0.00 83 1010.3
20260906101724 26 221 0.0 0.0 0.00 0.00 0.00 83 1010.3
20260906101219 26 221 0.0 0.0 0.00 0.00 0.00 83 1010.3
20260906100715 26 222 0.0 0.0 0.00 0.00 0.00 83 1010.3
20260906100214 26 222 0.0 0.0 0.00 0.00 0.00 83 1010.1
20260906095709 26 222 0.0 0.0 0.00 0.00 0.00 83 1010.1
20260906095205 26 224 0.0 0.0 0.00 0.00 0.00 83 1010.0
20260906094703 26 223 0.0 0.0 0.00 0.00 0.00 83 1010.0
20260906094159 26 227 0.0 0.0 0.00 0.00 0.00 82 1009.9
20260906093655 26 227 0.0 0.0 0.00 0.00 0.00 82 1009.7
20260906093150 26 263 0.0 0.0 0.00 0.00 0.00 82 1009.6
20260906092645 27 229 0.0 0.0 0.00 0.00 0.00 81 1009.6
20260906092144 27 228 0.0 0.0 0.00 0.00 0.00 81 1009.8
20260906091641 27 229 0.0 0.0 0.00 0.00 0.00 81 1009.9
20260906091137 27 206 0.0 0.0 0.00 0.00 0.00 80 1009.6
20260906090632 27 229 0.0 0.0 0.00 0.00 0.00 80 1009.7
20260906090126 27 221 0.0 0.0 0.00 0.00 0.00 80 1009.7
20260906085626 27 218 0.0 0.0 0.00 0.00 0.00 80 1009.6
20260906085120 27 125 0.0 0.0 0.00 0.00 0.00 81 1009.4
20260906084615 27 221 0.0 0.0 0.00 0.00 0.00 82 1009.7
20260906084114 27 236 0.0 0.0 0.00 0.00 0.00 80 1009.5
20260906083610 27 257 0.0 0.0 0.00 0.00 0.00 79 1009.6
20260906083109 27 203 0.0 0.0 0.00 0.00 0.00 79 1009.4
20260906082605 27 218 0.0 0.0 0.00 0.00 0.00 79 1009.6
20260906082100 27 319 0.0 0.0 0.00 0.00 0.00 79 1009.4
20260906081556 27 217 0.0 0.0 0.00 0.00 0.00 79 1009.5
20260906081051 27 225 0.0 0.0 0.00 0.00 0.00 79 1009.4
20260906080548 28 239 0.0 0.0 0.00 0.00 0.00 79 1009.6
20260906080044 27 219 0.0 0.0 0.00 0.00 0.00 80 1009.7
20260906075543 27 319 0.0 0.0 0.00 0.00 0.00 82 1009.6
20260906075038 27 212 0.0 0.0 0.00 0.00 0.00 81 1009.6
20260906074533 27 245 0.0 0.0 0.00 0.00 0.00 79 1009.7
20260906074031 28 224 0.0 0.0 0.00 0.00 0.00 79 1009.5
20260906073527 28 211 0.0 0.0 0.00 0.00 0.00 78 1009.6
20260906073023 28 222 0.0 0.0 0.00 0.00 0.00 77 1009.7
20260906072517 28 220 0.0 0.0 0.00 0.00 0.00 76 1009.8
20260906072014 28 251 0.0 0.0 0.00 0.00 0.00 76 1010.0
20260906071509 28 233 0.0 0.0 0.00 0.00 0.00 75 1010.0
20260906071004 28 316 0.0 0.0 0.00 0.00 0.00 76 1009.8
20260906070500 28 203 0.0 0.0 0.00 0.00 0.00 75 1010.0
20260906065955 28 246 0.0 0.0 0.00 0.00 0.00 76 1010.2
20260906065449 28 174 0.0 0.0 0.00 0.00 0.00 76 1009.9
20260906064945 28 238 0.0 0.0 0.00 0.00 0.00 75 1010.0
20260906064441 28 149 0.0 0.0 0.00 0.00 0.00 75 1009.9
20260906063936 28 238 0.0 0.0 0.00 0.00 0.00 73 1009.9
20260906063431 28 288 0.0 0.0 0.00 0.00 0.00 73 1009.8
20260906062926 28 238 0.0 0.0 0.00 0.00 0.00 72 1010.0
20260906062421 28 220 0.0 0.0 0.00 0.00 0.00 72 1010.0
20260906061916 28 202 0.0 0.0 0.00 0.00 0.00 72 1010.0
20260906061412 28 298 0.0 0.0 0.00 0.00 0.00 72 1009.6
20260906060906 28 231 0.0 0.0 0.00 0.00 0.00 73 1009.9
20260906060404 28 209 0.0 0.0 0.00 0.00 0.00 74 1010.0
20260906055900 28 193 0.0 0.0 0.00 0.00 0.00 75 1009.9
20260906055355 28 225 0.0 0.0 0.00 0.00 0.00 77 1010.0
20260906054850 29 224 0.0 0.0 0.00 0.00 0.00 74 1009.9
20260906054345 29 0 0.0 0.0 0.00 0.00 0.00 72 1010.0
20260906053842 29 183 0.0 0.0 0.00 0.00 0.00 70 1009.9
20260906053337 29 222 0.0 0.0 0.00 0.00 0.00 72 1009.9
20260906052832 29 187 0.0 0.0 0.00 0.00 0.00 70 1010.0
20260906052329 30 237 0.0 0.0 0.00 0.00 0.00 69 1009.8
20260906051825 30 244 0.0 0.0 0.00 0.00 0.00 69 1010.0
20260906051325 30 237 0.0 0.0 0.00 0.00 0.00 68 1010.1
20260906050821 30 200 0.0 0.0 0.00 0.00 0.00 68 1010.2
20260906050316 30 191 0.0 0.0 0.00 0.00 0.00 68 1010.1
20260906045814 30 235 0.0 0.0 0.00 0.00 0.00 67 1010.1
20260906045309 30 255 0.0 0.0 0.00 0.00 0.00 67 1010.0
20260906044805 30 243 0.0 0.0 0.00 0.00 0.00 67 1009.9
20260906044300 30 245 0.0 0.0 0.00 0.00 0.00 66 1010.0
20260906043756 30 176 0.0 0.0 0.00 0.00 0.00 66 1009.9
20260906043252 30 345 0.0 0.0 0.00 0.00 0.00 66 1009.9
20260906042751 30 245 0.0 0.0 0.00 0.00 0.00 66 1009.9
20260906042250 30 242 0.0 0.0 0.00 0.00 0.00 66 1010.0
20260906041746 30 251 0.0 0.0 0.00 0.00 0.00 65 1009.6
20260906041241 30 210 0.0 0.0 0.00 0.00 0.00 65 1009.8
20260906040736 30 309 0.0 0.0 0.00 0.00 0.00 65 1009.9
20260906040231 30 258 0.0 0.0 0.00 0.00 0.00 64 1009.8
20260906035727 30 261 0.0 0.0 0.00 0.00 0.00 64 1010.0
20260906035223 30 250 0.0 0.0 0.00 0.00 0.00 64 1010.1
20260906034722 31 130 0.0 0.0 0.00 0.00 0.00 64 1009.8
20260906034217 31 217 0.0 0.0 0.00 0.00 0.00 63 1010.1
20260906033713 31 8 0.0 0.0 0.00 0.00 0.00 63 1009.8
20260906033213 31 246 0.0 0.0 0.00 0.00 0.00 62 1009.8
20260906032710 31 269 0.0 1.6 0.00 0.00 0.00 62 1009.8
20260906032209 31 198 0.0 0.0 0.00 0.00 0.00 62 1009.8
20260906031705 31 232 0.0 0.0 0.00 0.00 0.00 61 1009.9
20260906031200 31 274 0.0 0.0 0.00 0.00 0.00 61 1009.9
20260906030659 31 272 3.2 3.2 0.00 0.00 0.00 61 1010.0
20260906030155 31 213 0.0 0.0 0.00 0.00 0.00 61 1010.0
20260906025653 31 232 0.0 0.0 0.00 0.00 0.00 61 1010.0
20260906025148 31 182 0.0 0.0 0.00 0.00 0.00 61 1010.0
20260906024642 31 131 0.0 1.6 0.00 0.00 0.00 61 1009.9
20260906024136 31 271 0.0 0.0 0.00 0.00 0.00 61 1009.9
20260906023633 31 8 0.0 0.0 0.00 0.00 0.00 60 1009.5
20260906023132 31 197 0.0 0.0 0.00 0.00 0.00 60 1009.6
20260906022627 31 151 0.0 0.0 0.00 0.00 0.00 60 1009.6
20260906022123 32 253 0.0 1.6 0.00 0.00 0.00 59 1009.4
20260906021619 32 233 3.2 4.8 0.00 0.00 0.00 59 1009.3
20260906021118 32 282 0.0 0.0 0.00 0.00 0.00 59 1009.3
20260906020617 32 215 0.0 0.0 0.00 0.00 0.00 59 1009.1
20260906020112 32 241 1.6 1.6 0.00 0.00 0.00 59 1009.2
20260906015606 32 254 0.0 1.6 0.00 0.00 0.00 58 1009.1
20260906015105 32 122 0.0 0.0 0.00 0.00 0.00 57 1009.0
20260906014600 32 120 0.0 0.0 0.00 0.00 0.00 56 1009.0
20260906014056 33 201 1.6 3.2 0.00 0.00 0.00 55 1008.9
20260906013551 33 229 8.0 14.5 0.00 0.00 0.00 55 1008.7
20260906013047 33 114 1.6 3.2 0.00 0.00 0.00 54 1008.4
20260906012542 34 220 3.2 8.0 0.00 0.00 0.00 53 1008.4
20260906012041 35 225 1.6 3.2 0.00 0.00 0.00 51 1008.2
20260906011538 35 110 1.6 3.2 0.00 0.00 0.00 47 1008.1
20260906011037 35 178 1.6 3.2 0.00 0.00 0.00 47 1008.2
20260906010533 35 144 1.6 3.2 0.00 0.00 0.00 47 1008.0
20260906010029 35 156 1.6 3.2 0.00 0.00 0.00 47 1008.0
20260906005528 35 87 1.6 3.2 0.00 0.00 0.00 46 1007.9
20260906005027 35 143 0.0 1.6 0.00 0.00 0.00 46 1008.1
20260906004526 35 112 6.4 11.3 0.00 0.00 0.00 45 1007.9
20260906004022 35 141 0.0 3.2 0.00 0.00 0.00 45 1007.9
20260906003516 36 238 1.6 1.6 0.00 0.00 0.00 44 1008.1
20260906003012 36 139 1.6 3.2 0.00 0.00 0.00 44 1007.7
20260906002507 36 121 1.6 3.2 0.00 0.00 0.00 44 1007.9
20260906002002 36 161 1.6 1.6 0.00 0.00 0.00 44 1007.9
20260906001458 36 175 1.6 1.6 0.00 0.00 0.00 45 1008.0
20260906000952 36 135 0.0 0.0 0.00 0.00 0.00 44 1008.0
20260906000448 36 124 0.0 0.0 0.00 0.00 0.00 44 1008.0
20260905235948 36 78 6.4 8.0 0.00 0.00 0.00 43 1008.1
20260905235442 36 178 0.0 0.0 0.00 0.00 0.00 43 1007.8
20260905234937 36 179 0.0 0.0 0.00 0.00 0.00 44 1007.7
20260905234432 36 191 0.0 0.0 0.00 0.00 0.00 45 1007.8
20260905233927 36 158 0.0 0.0 0.00 0.00 0.00 44 1007.7
20260905233422 37 89 1.6 1.6 0.00 0.00 0.00 42 1007.4
20260905232921 36 62 0.0 0.0 0.00 0.00 0.00 43 1007.7
20260905232418 37 115 0.0 1.6 0.00 0.00 0.00 43 1007.8
20260905231912 37 37 4.8 8.0 0.00 0.00 0.00 42 1007.7
20260905231408 37 53 3.2 4.8 0.00 0.00 0.00 42 1007.5
20260905230905 37 43 0.0 1.6 0.00 0.00 0.00 43 1007.9
20260905230403 37 61 1.6 3.2 0.00 0.00 0.00 43 1007.7
20260905225901 37 44 1.6 4.8 0.00 0.00 0.00 43 1007.8
20260905225356 37 161 4.8 8.0 0.00 0.00 0.00 43 1007.5